Погода в Ононском

Россия / Забайкальский край     51°28′34″N   115°57′11″E
темп.,
°C
ветер,
м/с
пор.,
м/с
влажн.,
%
обл.,
%
осадки,
мм/ч
давл.,
гПа
погр.,
м
7 мая, пт
пт700:00+6сз41067100 0.1 1004316
03:00+4з117269 0.1 100215
06:00+4з2562100 0.0 1001245
09:00+4ссв2375100 0.1 1001464
12:00+4с3478100 1.3 1000634
15:00+3с3594100 2.9 1001374
18:00+11св6103986 0.2 9992385
21:00+6ссв45587 0.3 100372
8 мая, сб
сб800:00+3ссв48675 0.0 1007143
03:00+2с33785 0.0 100834
06:00+1с22805 0.0 100916
09:00+6ссз245713 0.0 1009717
12:00+9с4744100 0.6 10071988
15:00+11с573399 0.6 10052768
18:00+11ссв673633 0.0 10051995
21:00+7св114984 0.0 100610
9 мая, вс
вс900:00+5св115773 0.0 100710
03:00+4св226165 0.0 100812
06:00+2ссв2269100 0.0 100925
09:00+7ссв344882 0.0 1009650
12:00+10с443883 0.0 10082002
15:00+12ссв4533100 0.0 10072249
18:00+13с342867 0.0 10062217
21:00+9с114193 0.0 100810
10 мая, пн
пн1000:00+6в224811 0.0 101016
03:00+4в11545 0.0 101110
06:00+3в11586 0.0 101210
09:00+9вюв22425 0.0 1011437
12:00+13вюв333055 0.0 10102278
15:00+15юв3324100 0.0 10072894
18:00+15в5526100 0.0 10062569
21:00+11всв41035100 0.0 1006237
11 мая, вт
вт1100:00+9в51141100 0.0 1006347
03:00+9вюв4942100 0.0 1005423
06:00+7св2455100 0.0 1005145
09:00+8св4952100 0.0 10051141
12:00+11св81244100 0.0 10041928
15:00+11св81146100 0.1 10041855
18:00+12всв61044100 0.0 10041879
21:00+7всв226494 0.0 100620